Weather in Onor

Russia / Sakhalin District     50°11′29″N   142°40′55″E
temp.,
°C
wind,
m/s
gust,
m/s
humid.,
%
clouds,
%
prec.,
mm/h
press.,
hPa
HPBL,
m
10 may, mon
mon1023:00+3n478783 0.0 1006365
02:00+2n478598 0.0 1005379
05:00+1n3680100 0.0 1006376
08:00+2n4773100 0.0 1007437
11:00+6nne565782 0.0 1007898
14:00+7nne4562100 0.1 1007942
17:00+7ne4759100 0.1 10081003
20:00+4nne3565100 0.0 1011625
11 may, tue
tue1123:00+1n237998 0.0 1013100
02:00−1nnw3679100 0.0 1015223
05:00−3nnw2688100 0.1 1015170
08:000n346841 0.0 1016301
11:00+7nne234068 0.0 1016975
14:00+11e223286 0.0 10161649
17:00+11se333760 0.0 10161699
20:00+7se355673 0.0 1018384
12 may, wed
wed1223:00+1s2581100 0.0 1020123
02:000sse258595 0.0 1021161
05:00−2s239221 0.0 102256
08:00+2sse22725 0.0 1021294
11:00+9sse22460 0.0 1019944
14:00+13sse33330 0.0 10171663
17:00+14s34365 0.0 10161934
20:00+8s476014 0.0 1017548
13 may, thu
thu1323:00+2s258370 0.0 1017112
02:00+1sse2387100 0.0 101774
05:000sse2491100 0.0 101686
08:00+2sse3679100 0.0 1015243
11:00+7sse4666100 0.0 1013638
14:00+8sse4571100 0.0 1012926
17:00+8sse4575100 0.0 1011867
20:00+5sse358987 0.0 1012423
14 may, fri
fri1423:00+3sse249673 0.0 1012213
02:00+3sse2597100 0.0 1012255
05:00+3sse139788 0.0 1011157
08:00+5s128873 0.0 1011254
11:00+12ese116321 0.0 1010720
14:00+16wnw135293 0.1 10091629
17:00+17wnw364113 0.1 10091895
20:00+14nw11545 0.0 100911